Regional Weather Roundup
Issued by NWS State College, PA

Home | Current Version | Previous Version | Text Only | Print | Product List | Glossary On
Versions: 1 2 3 4 5 6 7 8 9 10 11 12 13 14 15 16 17 18 19 20 21 22 23 24 25 26 27 28 29 30 31 32 33 34 35 36 37 38 39 40 41 42 43 44 45 46 47 48 49 50
000
ASUS41 KCTP 180210
RWRCTP

REGIONAL WEATHER ROUNDUP
NATIONAL WEATHER SERVICE STATE COLLEGE PA
900 PM EST WED DEC 17 2014

Note: "fair" indicates few or no clouds below 12,000 feet with no
significant weather and/or obstructions to visibility.

* = STATION THAT DOES NOT REPORT PRECIPITATION /E.G. RAIN...SNOW...ETC/
    THUNDER OR FOG.

PAZ002>004-007>009-013>016-020>023-029>032-180300-
WESTERN PENNSYLVANIA

CITY           SKY/WX    TMP DP  RH WIND       PRES   REMARKS
ERIE           FLURRIES  32  24  72 W15G28    30.06S
MEADVILLE      LGT SNOW  27  22  81 W13G23    30.05S
FRANKLIN*      CLOUDY    27  19  74 W13       30.07S
NEW CASTLE     FLURRIES  29  23  78 W9        30.12R
BEAVER COUNTY  FLURRIES  30  23  74 W13       30.10S
BUTLER*        CLOUDY    30  21  69 W12G21    30.10S
PITTSBURGH INT FLURRIES  30  22  72 W18       30.10S
PITTSBURGH     CLOUDY    31  19  61 W14G24    30.09S
INDIANA*       CLOUDY    30  25  80 NW12G17   30.10R
LATROBE        CLOUDY   N/A N/A N/A W17G29    30.10F
WASHINGTON CO* CLOUDY    30  21  69 W7        30.13S
$$

PAZ004>006-010>012-017>019-024>028-033>037-041-042-045-046-049>053-180300-
CENTRAL PENNSYLVANIA

CITY           SKY/WX    TMP DP  RH WIND       PRES   REMARKS
BRADFORD       LGT SNOW  27  23  85 W10       29.96S FOG
DUBOIS         CLOUDY    28  22  78 W15G21    30.00S
CLEARFIELD     CLOUDY    30  20  66 W13G23    30.02R
JOHNSTOWN      CLOUDY    27  19  72 W9G26     29.98F
ALTOONA        CLOUDY    32  23  69 W15G22    30.03R
STATE COLLEGE  CLOUDY    32  23  69 NW17      30.03R
WILLIAMSPORT   CLOUDY    36  23  59 W9        29.97F
SELINSGROVE    CLEAR     36  24  62 VRB5      30.00F
FT INDIANTOWN  CLOUDY    37  22  53 W10G17    30.01S
CAPITAL CITY   CLOUDY    38  22  52 W14       30.03R
HARRISBURG     CLOUDY    38  23  55 W18       30.02R
YORK           CLOUDY    38  25  59 NW7       30.03R
$$

PAZ038>040-043-044-047-048-054-055-060>062-067>071-180300-
EASTERN PENNSYLVANIA

CITY           SKY/WX    TMP DP  RH WIND       PRES   REMARKS
SCRANTON       CLOUDY    38  24  57 W15G24    29.91R
MOUNT POCONO   CLOUDY    33  24  69 W17G25    29.85S
ALLENTOWN      CLEAR     39  25  57 W15G23    29.94S
QUAKERTOWN*    CLOUDY    39  27  60 W8G17     29.95S
READING        PTCLDY    37  23  56 W14       29.97S
LANCASTER      PTCLDY    36  23  59 NW12      30.00S
COATESVILLE    PTCLDY    37  25  60 NW14      29.98S
POTTSTOWN      PTCLDY    37  23  56 W10G20    29.98S
BLUE BELL      CLEAR     39  27  60 W6        29.96S
DOYLESTOWN     MOCLDY    38  27  64 W9        29.94R
WILLOW GROVE   NOT AVBL
NORTH PHILA    PTCLDY    42  23  46 W16       29.97S
PHILADELPHIA   CLEAR     42  23  46 W14       29.99R
$$



USA.gov is the U.S. government's official web portal to all federal, state and local government web resources and services.